Preview of NWS' New Version of Forecast
This preview is not operational and should not be used for support decisions.

Regional Weather Roundup (RWR)

Issued by National Weather Service (NWS)

                            
000
ASUS42 KTBW 250415
RWRFL 
FLORIDA REGIONAL WEATHER ROUNDUP
NATIONAL WEATHER SERVICE TAMPA BAY RUSKIN FL
1200 AM EDT TUE JUN 25 2019

NOTE: "FAIR" INDICATES FEW OR NO CLOUDS BELOW 12,000 FEET WITH NO
SIGNIFICANT WEATHER AND/OR OBSTRUCTIONS TO VISIBILITY.

FLZ001>010-012>015-112-114-115-250500-
PANHANDLE FLORIDA
  
CITY           SKY/WX    TMP DP  RH WIND       PRES   REMARKS
PENSACOLA      FAIR      82  79  90 SW6       30.00R                  
PENSACOLA NAS  FAIR      82  78  88 SW7       29.99S                  
MILTON NAS     FAIR      78  74  87 SW3       30.01                   
CRESTVIEW      FAIR      79  73  82 CALM      30.02R                  
DUKE FIELD     FAIR      79  76  89 S5        30.01R                  
VALPARAISO     FAIR      83  76  77 SW6       30.00R                  
MARY ESTHER    CLEAR     83  77  81 SW3       29.99R                  
TRI COUNTY     FAIR      77  76  96 CALM      30.02R                  
PANAMA CITY    FAIR      81  76  84 S6        30.01R                  
TYNDALL AFB    FAIR      84  78  84 SW9       30.01S HX  95           
APALACHICOLA   FAIR      84  77  79 SW8       30.02S                  

STATION/POSITION SKY/WX   TEMP    WIND        PRES    WAVE   SWELL
                          AIR SEA DIR/SP/G            HT/PER HT/PER
                          (F)     (DEG/KT/KT) (MB)    (FT/S) (FT/S)
30.1N   87.6W                                   N/A     3/ 6
29.2N   88.2W                     170/ 14/ 17 1016.3R   3/ 6   2/ 6
PANAMA CITY BEAC                  220/ 11/ 13   N/A
TOWER C          NOT AVBL

$$
FLZ011-016>038-118-127-128-134-139-239-250500-
NORTH FLORIDA
  
CITY           SKY/WX    TMP DP  RH WIND       PRES   REMARKS
MARIANNA       FAIR      80  77  90 S3        30.00S                  
TALLAHASSEE    FAIR      82  78  88 SW6       30.02S                  
PERRY          FAIR      82  80  94 SW5       30.04S                  
LIVE OAK       PTCLDY    73  72  94 CALM      30.02F                  
CROSS CITY     FAIR      79  77  94 CALM      30.04F                  
LAKE CITY      FAIR      72  68  88 SW5       30.03F                  
GAINESVILLE    FAIR      77  72  84 CALM      30.06F                  
PALATKA        FAIR      79  73  83 SW6       30.03F                  
MAYPORT NAS    FAIR      86  70  58 W8        30.00S                  
JACKSONVILLE   FAIR      80  67  64 W3        29.99S                  
JAX NAS        FAIR      83  65  54 W8        30.02R                  
JAX CECIL      FAIR      77  68  73 S5        30.01F                  
FERNANDINA BEA FAIR      83  68  61 W7        29.99S                  
ST AUGUSTINE   FAIR      82  73  74 SW7       30.02F                  
PALM COAST     FAIR      80  72  76 NW9       30.04R                  

STATION/POSITION SKY/WX   TEMP    WIND        PRES    WAVE   SWELL
                          AIR SEA DIR/SP/G            HT/PER HT/PER
                          (F)     (DEG/KT/KT) (MB)    (FT/S) (FT/S)
SHELL POINT      NOT AVBL
KEATON BEACH               85     250/ 14/ 16 1017.0S
CEDAR KEY                  85     270/  8/ 10 1017.7R
FERNANDINA                 86 87  270/  5/  9 1016.4R
30.7N   81.3W                 83                N/A     2/ 9
MAYPORT                    86 84  250/  7/  9 1016.2R
31.4N   80.9W              84 83  230/ 14/ 16 1014.7S   3/ 4   2/ 9
ST AUGUSTINE               83 83  250/  7/ 10 1016.4F

$$
FLZ040-043>046-052-053-057-058-063-144-250500-
INTERIOR CENTRAL FLORIDA
  
CITY           SKY/WX    TMP DP  RH WIND       PRES   REMARKS
OCALA          FAIR      79  75  87 CALM      30.06S                  
LEESBURG       FAIR      80  75  84 CALM      30.07R                  
SANFORD        FAIR      82  72  71 W9        30.04R                  
ORLANDO EXEC   FAIR      84  71  65 W9        30.04S                  
ORLANDO INTL   FAIR      83  70  64 W6        30.04S                  
KISSIMMEE      FAIR      80  72  76 W3        30.06S                  
WINTER HAVEN   FAIR      81  72  74 NW8       30.07S                  
LAKELAND       FAIR      79  72  78 NW3       30.07S                  
SEBRING        FAIR      82  73  73 NE5       30.05S                  
OKEECHOBEE     FAIR      77  73  88 CALM      30.04F                  

$$
FLZ041-047-054-059-064-141-147-250500-
EAST CENTRAL FLORIDA
  
CITY           SKY/WX    TMP DP  RH WIND       PRES   REMARKS
DAYTONA BEACH  FAIR      81  72  74 W8        30.03S                  
DELAND         FAIR      81  72  74 W5        30.04S                  
JFK SPACE CTR  FAIR      81  69  65 S3        30.03S                  
CAPE CANAVERAL FAIR      80  40  23 S6        30.03R                  
PATRICK AFB    FAIR      84  80  89 S9        30.04R HX  97           
MELBOURNE      FAIR      83  78  85 SW7       30.04R                  
VERO BEACH     FAIR      83  77  82 S5        30.04S                  
FT PIERCE      FAIR      81  75  82 S3        30.04R                  
STUART         CLOUDY    82  75  78 S3        30.06R                  

STATION/POSITION SKY/WX   TEMP    WIND        PRES    WAVE   SWELL
                          AIR SEA DIR/SP/G            HT/PER HT/PER
                          (F)     (DEG/KT/KT) (MB)    (FT/S) (FT/S)
28.5N   80.2W              83     190/ 12/ 14 1017.4R
28.9N   78.5W              83 84  200/  6/  6   N/A     2/ 8   2/ 8
TRIDENT PIER               81 75  180/  6/  8 1018.6R
28.4N   80.5W                 80                N/A     1/ 9
27.5N   80.2W                 82                N/A     1/ 9

$$
FLZ050-056-061-142-242-148-248-149-249-151-251-155-255-
160-260-250500-
WEST CENTRAL FLORIDA
  
CITY           SKY/WX    TMP DP  RH WIND       PRES   REMARKS
CRYSTAL RIVER  FAIR     N/A N/A N/A CALM      30.06R                  
INVERNESS      FAIR      77  77 100 CALM      30.07R                  
BROOKSVILLE    FAIR      76  74  93 CALM      30.06F                  
CLEARWATER AIR FAIR      81  72  74 CALM      30.05F                  
ST PETE CLEARW FAIR      81  74  79 W6        30.06R                  
TAMPA INTL     FAIR      83  75  77 NW3       30.06S                  
PLANT CITY       N/A    N/A N/A N/A MISG        N/A                   
MACDILL AFB    FAIR      82  75  80 CALM      30.06R                  
PETER O KNIGHT CLOUDY    82  77  83 CALM      30.06S                  
ST PETERSBURG    N/A    N/A N/A N/A MISG      30.04S                  
SARASOTA       FAIR      82  74  76 N3        30.04S                  
VENICE         FAIR      84  75  74 N8        30.06S                  

STATION/POSITION SKY/WX   TEMP    WIND        PRES    WAVE   SWELL
                          AIR SEA DIR/SP/G            HT/PER HT/PER
                          (F)     (DEG/KT/KT) (MB)    (FT/S) (FT/S)
27.3N   84.2W                 87                N/A     1/ 9
CLEARWATER BEACH           85 90  290/  7/  8 1018.1R
MIDDLE TAMPA BAY           84     340/  5/  7 1018.1R
VENICE                     85 86  340/ 13/ 14 1017.5S

$$
FLZ066-069-070-075>078-162-262-165-265-250500-
SOUTHWEST FLORIDA AND KEYS
  
CITY           SKY/WX    TMP DP  RH WIND       PRES   REMARKS
PUNTA GORDA    FAIR      81  75  82 NW7       30.06S                  
FT MYERS       FAIR      83  32  16 NW6       30.04R                  
SOUTHWEST INTL FAIR      83  74  74 N3        30.04S                  
NAPLES         FAIR      86  76  71 CALM      30.04S HX  96           
IMMOKALEE      FAIR      81  73  78 CALM      30.04R                  
MARATHON       FAIR      86  75  69 SE5       30.04F HX  95           
KEY WEST NAS   FAIR      86  75  69 SE8       30.04F HX  95           
KEY WEST INTL  FAIR      85  75  72 E9        30.04F                  

STATION/POSITION SKY/WX   TEMP    WIND        PRES    WAVE   SWELL
                          AIR SEA DIR/SP/G            HT/PER HT/PER
                          (F)     (DEG/KT/KT) (MB)    (FT/S) (FT/S)
NAPLES                     87 91              1017.4R
DRY TORTUGAS               86      70/  9/ 10 1017.5S
SAND KEY                   85                 1017.2F
SOMBRERO KEY               85                 1016.9S
LONG KEY                   86     140/ 13/ 19 1017.7R

$$
FLZ067-068-071>074-168-172>174-250500-
SOUTHEAST FLORIDA 
  
CITY           SKY/WX    TMP DP  RH WIND       PRES   REMARKS
W PALM BEACH   FAIR      85  75  72 S7        30.05R                  
FT LAUDER-EXEC FAIR      84  75  74 S5        30.04S                  
FT LAUDERDALE  FAIR      85  75  72 S5        30.03F                  
POMPANO BEACH  FAIR      86  75  69 S5        30.04S HX  95           
PEMBROKE PINES FAIR      85  74  69 S3        30.05F                  
OPA LOCKA      FAIR      84  75  74 S5        30.05F                  
MIAMI          FAIR      84  73  69 S3        30.05F                  
WEST KENDALL   FAIR      82  76  81 S3        30.04F                  
HOMESTEAD      FAIR      81  78  91 CALM      30.04S                  

STATION/POSITION SKY/WX   TEMP    WIND        PRES    WAVE   SWELL
                          AIR SEA DIR/SP/G            HT/PER HT/PER
                          (F)     (DEG/KT/KT) (MB)    (FT/S) (FT/S)
VIRGINIA KEY                      160/  4/  5   N/A
LAKE WORTH                 85 84  190/  9/ 11 1018.5R
FOWEY ROCKS                85 85  180/  5/  6 1017.7F
SETTLEMENT POINT           84     180/  5/  7 1017.4F

$$